TimeCST,TemperatureF,Dew PointF,Humidity,Sea Level PressureIn,VisibilityMPH,Wind Direction,Wind SpeedMPH,Gust SpeedMPH,PrecipitationIn,Events,Conditions,WindDirDegrees,DateUTC
12:53 AM,30.0,19.0,64,30.24,10.0,NNW,5.8,-,N/A,,Clear,340,2013-03-01 06:53:00
1:53 AM,28.9,19.0,67,30.23,10.0,WNW,6.9,-,N/A,,Clear,290,2013-03-01 07:53:00
2:53 AM,30.0,18.0,61,30.22,10.0,WNW,8.1,-,N/A,,Clear,300,2013-03-01 08:53:00
3:53 AM,28.0,19.0,69,30.22,10.0,NW,9.2,-,N/A,,Clear,320,2013-03-01 09:53:00
4:53 AM,28.0,17.1,63,30.23,10.0,WNW,8.1,-,N/A,,Clear,300,2013-03-01 10:53:00
5:53 AM,27.0,18.0,69,30.24,10.0,NW,9.2,-,N/A,,Clear,320,2013-03-01 11:53:00
6:53 AM,28.0,18.0,66,30.28,10.0,NNW,8.1,-,N/A,,Clear,340,2013-03-01 12:53:00
7:53 AM,27.0,18.0,69,30.33,10.0,NNW,8.1,-,N/A,,Clear,340,2013-03-01 13:53:00
8:53 AM,35.6,21.2,56,30.32,10.0,NW,6.9,-,N/A,,Clear,320,2013-03-01 14:53:00
9:53 AM,42.1,18.0,38,30.33,10.0,NNW,15.0,-,N/A,,Clear,330,2013-03-01 15:53:00
10:53 AM,46.0,14.0,28,30.32,10.0,North,16.1,-,N/A,,Clear,350,2013-03-01 16:53:00
11:53 AM,46.4,12.2,25,30.31,10.0,North,21.9,27.6,N/A,,Clear,350,2013-03-01 17:53:00
12:53 PM,48.9,12.0,23,30.30,10.0,North,18.4,27.6,N/A,,Clear,360,2013-03-01 18:53:00
1:53 PM,51.1,12.9,22,30.27,10.0,North,24.2,28.8,N/A,,Clear,360,2013-03-01 19:53:00
2:53 PM,51.8,12.2,21,30.25,10.0,NNW,23.0,26.5,N/A,,Clear,340,2013-03-01 20:53:00
3:53 PM,53.1,10.9,19,30.23,10.0,NNW,18.4,31.1,N/A,,Clear,340,2013-03-01 21:53:00
4:53 PM,53.1,10.9,19,30.22,10.0,NNW,18.4,27.6,N/A,,Clear,340,2013-03-01 22:53:00
5:53 PM,52.0,10.9,19,30.24,10.0,North,18.4,-,N/A,,Partly Cloudy,360,2013-03-01 23:53:00
6:53 PM,48.0,16.0,28,30.27,10.0,North,12.7,-,N/A,,Partly Cloudy,350,2013-03-02 00:53:00
7:53 PM,44.6,19.4,37,30.28,10.0,North,9.2,-,N/A,,Clear,360,2013-03-02 01:53:00
8:53 PM,41.0,21.0,45,30.32,10.0,North,4.6,-,N/A,,Scattered Clouds,360,2013-03-02 02:53:00
9:53 PM,37.9,19.9,48,30.34,10.0,ESE,4.6,-,N/A,,Partly Cloudy,110,2013-03-02 03:53:00
10:53 PM,32.0,21.0,64,30.35,10.0,NE,8.1,-,N/A,,Clear,50,2013-03-02 04:53:00
11:53 PM,33.1,21.9,64,30.35,10.0,NE,6.9,-,N/A,,Clear,40,2013-03-02 05:53:00